Weather History for Frenchville, ME

Change the Weather History Date:

Wednesday, April 17, 2013

  Actual Average Record
Temperature  
Mean Temperature 36 °F 38 °F  
Max Temperature 43 °F 46 °F 70 °F (2012)
Min Temperature 29 °F 30 °F 1 °F (2003)
Degree Days  
Heating Degree Days 29    
Month to date heating degree days 588  
Since 1 July heating degree days 8211  
Cooling Degree Days 0    
Month to date cooling degree days 0  
Year to date cooling degree days 0  
Moisture  
Dew Point 25 °F    
Average Humidity 62    
Maximum Humidity 93    
Minimum Humidity 37    
Precipitation  
Precipitation 0.00 in 0.10 in 0.56 in (1998)
Month to date precipitation 0.63 1.60  
Year to date precipitation 3.79 5.65  
Sea Level Pressure  
Sea Level Pressure 30.01 in    
Wind  
Wind Speed 16 mph (NW)    
Max Wind Speed 28 mph    
Max Gust Speed 37 mph    
Visibility 9 miles    
Events Rain    
T = Trace of Precipitation, MM = Missing Value Source: NWS Daily Summary

Daily Weather History Graph

Daily Weather History Graph

Search for Another Location

Airport:

Trip Planner

Search our weather history database for the weather conditions in past years. The results will help you decide how hot, cold, wet, or windy it might be!

Date:

Astronomy

Apr. 17, 2013 Rise Set
Actual Time 5:40 AM EDT 7:25 PM EDT
Civil Twilight 5:08 AM EDT 7:57 PM EDT
Nautical Twilight 4:29 AM EDT 8:37 PM EDT
Astronomical Twilight 3:45 AM EDT 9:21 PM EDT
Moon 10:43 AM EDT 1:09 AM EDT
Length of Visible Light 14h 49m
Length of Day
13h 44m
Waxing Crescent, 42% of the Moon is Illuminated
Apr 17
Waxing Crescent
Apr 18
First Quarter
Apr 25
Full
May 2
Last Quarter
May 9
New

Hourly Weather History & Observations

Time (EDT) Temp. Windchill Dew Point Humidity Pressure Visibility Wind Dir Wind Speed Gust Speed Precip Events Conditions
12:01 AM 41.0 °F 35.2 °F 39.2 °F 93% 29.76 in 7.0 mi NW 9.2 mph - N/A   Overcast
12:06 AM 39.2 °F 28.5 °F 35.6 °F 87% 29.76 in 2.0 mi WNW 24.2 mph 36.8 mph 0.00 in Rain Light Rain
12:12 AM 39.2 °F 29.6 °F 33.8 °F 81% 29.77 in 4.0 mi NW 19.6 mph 36.8 mph 0.00 in Rain Light Rain
12:22 AM 37.4 °F 28.5 °F 33.8 °F 87% 29.77 in 10.0 mi NW 15.0 mph 33.4 mph 0.00 in Rain Light Rain
12:40 AM 37.4 °F 27.8 °F 33.8 °F 87% 29.77 in 10.0 mi WNW 17.3 mph 23.0 mph 0.00 in   Overcast
12:53 AM 37.9 °F 28.5 °F 34.0 °F 86% 29.80 in 10.0 mi WNW 17.3 mph - 0.00 in   Overcast
1:53 AM 36.0 °F 30.3 °F 33.1 °F 89% 29.81 in 10.0 mi WSW 6.9 mph - N/A   Clear
2:53 AM 37.0 °F 34.5 °F 30.9 °F 79% 29.83 in 10.0 mi West 3.5 mph - N/A   Scattered Clouds
3:53 AM 36.0 °F 28.5 °F 28.9 °F 76% 29.83 in 10.0 mi WNW 10.4 mph - N/A   Clear
4:53 AM 36.0 °F 25.3 °F 28.0 °F 73% 29.86 in 10.0 mi West 19.6 mph - N/A   Clear
5:53 AM 36.0 °F 27.5 °F 28.0 °F 73% 29.89 in 10.0 mi West 12.7 mph - N/A   Clear
6:53 AM 37.0 °F 28.5 °F 28.0 °F 70% 29.92 in 10.0 mi WNW 13.8 mph 27.6 mph N/A   Clear
7:53 AM 39.0 °F 29.6 °F 27.0 °F 62% 29.96 in 10.0 mi NW 18.4 mph 27.6 mph N/A   Partly Cloudy
8:53 AM 41.0 °F 31.4 °F 27.0 °F 57% 29.99 in 10.0 mi WNW 21.9 mph 28.8 mph N/A   Partly Cloudy
9:53 AM 41.0 °F 31.4 °F 25.0 °F 53% 30.01 in 10.0 mi NW 21.9 mph 34.5 mph N/A   Scattered Clouds
10:53 AM 39.9 °F 30.2 °F 24.1 °F 53% 30.04 in 10.0 mi WNW 20.7 mph 33.4 mph N/A   Clear
11:53 AM 39.9 °F 30.8 °F 24.1 °F 53% 30.06 in 10.0 mi NNW 18.4 mph 29.9 mph N/A   Clear
12:53 PM 42.1 °F 32.3 °F 24.1 °F 49% 30.08 in 10.0 mi NW 24.2 mph 31.1 mph N/A   Partly Cloudy
1:53 PM 42.1 °F 32.1 °F 23.0 °F 47% 30.09 in 10.0 mi WNW 25.3 mph 32.2 mph N/A   Clear
2:53 PM 43.0 °F 33.3 °F 19.9 °F 40% 30.10 in 10.0 mi NW 25.3 mph 33.4 mph N/A   Clear
3:53 PM 42.1 °F 32.8 °F 18.0 °F 38% 30.15 in 10.0 mi NW 21.9 mph 29.9 mph N/A   Clear
4:53 PM 42.1 °F 32.8 °F 17.1 °F 37% 30.18 in 10.0 mi NW 21.9 mph 32.2 mph N/A   Clear
5:53 PM 41.0 °F 32.8 °F 17.1 °F 38% 30.22 in 10.0 mi NW 16.1 mph 28.8 mph N/A   Clear
6:53 PM 39.9 °F 31.1 °F 17.1 °F 40% 30.25 in 10.0 mi NNW 17.3 mph 23.0 mph N/A   Clear
7:53 PM 37.0 °F 28.9 °F 17.1 °F 44% 30.27 in 10.0 mi NW 12.7 mph - N/A   Clear
8:53 PM 36.0 °F 28.0 °F 17.1 °F 46% 30.29 in 10.0 mi NW 11.5 mph - N/A   Clear
9:53 PM 35.1 °F 25.9 °F 17.1 °F 48% 30.31 in 10.0 mi NW 13.8 mph 21.9 mph N/A   Clear
10:53 PM 33.1 °F 23.4 °F 18.0 °F 54% 30.32 in 10.0 mi NNW 13.8 mph - N/A   Clear
11:53 PM 32.0 °F 23.6 °F 17.1 °F 54% 30.34 in 10.0 mi NW 10.4 mph - N/A   Clear